Location: F?ge?el
(45.8833°N, 22.5833°E)
Time: 23:36:27
(UTC+00:00)

Cosmos 1869 - Pass Details

Date: 17 November 2025
Orbit: 453 x 480 km, 82.5° (Epoch: 11 December)

Event Time Altitude Azimuth Distance (km) Brightness Sun altitude
Rises 15:34:24 0° 165° (SSE) 2,491 6.8 -6.9°
Reaches altitude 10° 15:36:37 10° 155° (SSE) 1,615 5.7 -7.3°
Maximum altitude 15:39:45 31° 92° (E) 836 3.8 -7.8°
Drops below altitude 10° 15:42:54 10° 29° (NNE) 1,613 5.3 -8.3°
Enters shadow 15:45:05 - 19° (NNE) 2,479 6.3 -8.7°
